Regional Weather Roundup
Issued by NWS Binghamton, NY

Home | Current Version | Previous Version | Text Only | Print | Product List | Glossary On
Versions: 1 2 3 4 5 6 7 8 9 10 11 12 13 14 15 16 17 18 19 20 21 22 23 24 25 26 27 28 29 30 31 32 33 34 35 36 37 38 39 40 41 42 43 44 45 46 47 48 49 50
000
ASUS41 KBGM 301610
RWRBGM
RWRBGM
BINGHAMTON REGIONAL WEATHER ROUNDUP
NATIONAL WEATHER SERVICE BINGHAMTON NY
1100 AM EST FRI JAN 30 2015

Note: "fair" indicates few or no clouds below 12,000 feet with no
significant weather and/or obstructions to visibility.

* = Station(s) that does not report precipitation, such as rain,
snow, etc, also no thunder or fog.

!NYZ009-015>018-022>025-036-037-044>046-055>057-062-301700
...CENTRAL NEW YORK...

CITY           SKY/WX    TMP DP  RH WIND       PRES   REMARKS
BINGHAMTON     LGT SNOW  25  18  74 NW13G24   29.88R WCI  14
CORTLAND       LGT SNOW  27  23  86 NW3       29.95R
DANSVILLE      LGT SNOW  19  13  77 N21G29    30.10R WCI   3
ELMIRA         FLURRIES  30  20  66 NW9G22    29.97R WCI  22
ITHACA         LGT SNOW  25  22  88 N17G23    29.96R VSB 3/4 WCI  12
HAMILTON       CLOUDY    25  18  74 N9G16     29.92  WCI  15
HORNELL        LGT SNOW  19  14  79 N16       30.07R WCI   5
MONTICELLO     CLOUDY    27  25  93 NW16G24   29.83S WCI  14
NORWICH        CLOUDY    25  18  74 N12G18    29.93R WCI  14
ONEONTA        MOSUNNY   23  16  74 NW12G23   29.83R WCI  12
PENN YAN       LGT SNOW  23  16  74 W15G25    30.01R VSB 1   WCI  10
ROME           CLOUDY    24  16  71 NW13      29.96S WCI  12
SIDNEY         FLURRIES  28  21  74 NW13G20   29.91R WCI  18
SYRACUSE       LGT SNOW  20  18  92 NW16G28   30.00R BLWGSNOWWCI   6
$$

!PAZ038>040-043-044-047-048-072-301700
...NORTHEAST PENNSYLVANIA...

CITY           SKY/WX    TMP DP  RH WIND       PRES   REMARKS
HAZLETON       CLOUDY    30  23  74 NW12G21   29.91R WCI  21
SCRANTON       LGT SNOW  30  22  72 NW14      29.91S WCI  19
TOWANDA*       PTSUNNY   30  21  69 NW6       29.98R WCI  24
$$
&&
KEY
WCI = WIND CHILL INDEX
VSB = VISIBILITY
HX  = HEAT INDEX
$$


USA.gov is the U.S. government's official web portal to all federal, state and local government web resources and services.